Date,TemperatureHighF,TemperatureAvgF,TemperatureLowF,DewpointHighF,DewpointAvgF,DewpointLowF,HumidityHigh,HumidityAvg,HumidityLow,PressureMaxIn,PressureMinIn,WindSpeedMaxMPH,WindSpeedAvgMPH,GustSpeedMaxMPH,PrecipitationSumIn
2013-1-1,50.2,48.7,46.2,49.0,43.5,31.5,98,83,52,30.15,29.93,9,2,12,0.55
2013-1-2,54.8,49.5,45.6,51.8,47.9,43.1,98,94,84,30.14,29.87,3,0,4,0.08
2013-1-3,45.6,42.1,32.5,43.1,40.8,31.2,97,95,91,30.29,30.09,2,0,3,0.01
2013-1-4,53.1,39.1,26.2,35.8,29.1,20.3,96,70,44,30.36,30.24,9,1,13,0.00
2013-1-5,51.1,38.1,23.8,36.3,27.3,21.0,90,67,41,30.41,30.24,5,0,6,0.00
2013-1-6,53.6,45.6,39.0,43.0,38.2,32.1,87,75,66,30.25,30.05,9,2,15,0.00
2013-1-7,53.0,40.6,27.6,35.1,31.5,25.3,92,72,47,30.43,30.21,3,0,6,0.00
2013-1-8,52.2,42.2,31.4,42.0,35.9,28.3,90,79,64,30.46,30.35,2,0,5,0.00
2013-1-9,64.6,52.3,38.8,53.4,46.8,36.2,92,82,64,30.46,30.36,3,0,5,0.00
2013-1-10,60.0,51.3,48.5,54.2,49.5,46.9,96,94,81,30.46,30.40,3,0,5,0.00
2013-1-11,61.2,55.6,51.2,60.9,54.9,50.7,100,97,95,30.30,30.13,3,0,7,0.10
2013-1-12,70.8,52.5,50.9,64.8,51.8,50.6,99,97,80,30.15,30.11,8,0,10,0.00
2013-1-13,73.8,65.0,59.0,63.8,60.4,57.0,96,86,67,30.13,30.02,14,4,28,0.00
2013-1-14,73.0,64.6,62.7,66.0,61.7,60.4,97,91,78,30.11,30.02,6,2,13,0.06
2013-1-15,64.6,59.3,49.2,61.0,57.8,47.8,97,95,88,30.12,30.03,3,0,10,0.01
2013-1-16,50.0,50.0,50.0,49.5,49.5,49.5,98,98,98,29.98,29.98,0,0,6,0.00
2013-1-17,50.1,45.1,41.7,49.8,44.6,41.2,99,98,98,29.88,29.75,4,2,8,1.55
2013-1-18,41.1,38.8,36.2,36.8,33.8,30.2,96,83,65,30.50,30.48,1,0,8,0.00
2013-1-19,55.0,54.1,53.4,32.9,31.9,30.5,45,43,39,30.26,30.25,8,6,10,0.00
2013-1-21,61.1,54.8,39.2,37.4,32.8,26.5,82,45,34,30.08,29.94,12,6,25,0.00
2013-1-22,45.1,35.8,28.7,22.2,18.2,15.5,67,50,34,30.24,30.05,6,1,15,0.00
2013-1-23,50.9,31.9,22.7,30.1,19.2,14.2,80,61,38,30.37,30.16,11,2,20,0.00
2013-1-24,52.7,46.6,38.4,39.4,31.9,12.4,77,60,20,30.36,30.02,15,6,26,0.00
2013-1-25,27.1,25.9,24.2,22.7,12.4,8.5,86,57,46,30.51,30.19,3,0,12,0.00
2013-1-28,50.7,46.2,38.0,46.3,39.5,30.6,93,78,67,30.46,30.28,7,1,10,0.00
2013-1-29,72.0,57.6,40.9,60.7,52.6,39.6,97,84,66,30.28,30.02,12,3,17,0.00
2013-1-30,73.7,65.3,49.2,64.3,60.3,46.1,95,84,68,30.02,29.43,19,11,30,0.80
2013-1-31,50.7,44.2,37.7,47.0,28.4,23.5,92,55,35,30.09,29.60,18,10,29,0.00
2013-2-1,46.1,39.1,25.5,29.3,19.0,9.9,65,46,29,30.37,30.00,17,5,24,0.00
2013-2-2,47.9,34.6,20.1,37.1,19.7,9.3,91,58,30,30.39,30.08,19,4,22,0.03
2013-2-3,55.0,42.6,34.4,37.0,32.0,25.7,93,69,38,30.07,29.89,16,6,23,0.00
2013-2-4,46.6,37.9,26.8,29.7,25.9,21.3,86,63,45,30.15,30.02,6,1,10,0.00
2013-2-5,62.5,48.5,33.4,48.4,38.6,28.1,87,69,51,30.02,29.91,20,5,29,0.00
2013-2-6,68.5,53.0,37.5,45.4,37.6,31.4,95,62,28,30.18,29.99,6,1,11,0.00
2013-2-7,47.1,42.7,39.3,39.9,35.2,29.1,96,76,57,30.22,29.96,6,2,12,0.86
2013-2-8,61.1,48.1,39.5,49.7,40.6,30.1,100,77,48,30.12,29.89,12,3,17,0.00
2013-2-9,61.7,45.4,28.4,33.6,27.7,24.1,88,54,26,30.32,30.10,2,0,6,0.00
2013-2-10,57.5,46.8,35.9,48.1,35.4,25.5,96,66,40,30.42,30.17,6,1,14,0.41
2013-2-11,60.9,55.4,49.2,59.9,53.6,48.1,100,94,83,30.18,29.95,14,5,25,0.09
2013-2-12,60.5,51.7,45.0,50.4,42.2,32.7,96,74,36,30.10,29.90,4,0,5,0.32
2013-2-13,50.5,45.3,40.7,47.2,43.3,34.7,98,93,78,29.91,29.69,14,3,17,0.04
2013-2-14,51.8,40.5,30.1,38.3,34.0,28.1,94,79,58,30.09,29.88,7,1,16,0.00
2013-2-15,62.7,44.1,29.0,42.7,34.4,27.5,96,73,37,30.11,29.94,11,2,15,0.00
2013-2-16,46.9,35.6,27.8,37.6,31.5,20.3,95,85,70,30.06,29.81,13,1,25,0.25
2013-2-17,46.3,32.4,20.2,20.3,16.1,11.4,84,55,25,30.29,30.06,12,1,16,0.02
2013-2-18,56.0,39.2,21.6,29.8,23.8,16.7,85,57,34,30.40,30.22,9,2,17,0.00
2013-2-19,54.5,42.5,35.0,46.5,35.0,23.2,96,76,48,30.23,29.92,14,4,16,0.26
2013-2-20,55.3,42.9,25.8,32.3,22.8,18.2,82,47,29,30.14,30.05,5,1,10,0.00
2013-2-21,60.6,45.0,29.5,33.4,23.5,16.2,62,44,28,30.23,30.07,4,0,6,0.00
2013-2-22,47.6,39.4,37.5,38.1,36.7,32.1,97,91,55,30.25,30.11,4,1,7,0.33
2013-2-23,42.7,39.9,37.4,42.2,39.3,36.6,98,98,97,30.13,29.86,3,0,4,0.42
2013-2-24,66.0,51.1,42.6,49.3,43.4,32.4,99,78,43,29.99,29.86,6,1,9,0.00
2013-2-25,45.8,42.2,36.3,33.3,30.7,28.6,83,64,58,30.13,29.98,5,2,10,0.00
2013-2-26,42.0,37.1,32.9,41.5,36.0,31.4,98,96,83,30.03,29.61,8,2,13,1.04
2013-2-27,57.5,47.4,39.0,41.0,37.1,34.3,98,69,48,29.84,29.69,14,7,21,0.00
2013-2-28,50.9,43.7,32.5,35.3,30.8,26.2,81,61,47,29.91,29.74,12,5,20,0.00
2013-3-1,52.1,40.1,26.9,32.9,29.1,23.8,90,67,46,29.96,29.86,10,1,17,0.00
2013-3-2,45.0,38.6,33.0,38.0,32.9,24.6,95,81,61,29.95,29.85,11,1,16,0.08
2013-3-3,46.9,35.8,25.8,25.2,21.7,17.5,84,58,39,30.04,29.91,10,2,13,0.00
2013-3-4,55.8,38.5,19.2,31.2,21.3,14.9,86,54,27,30.17,30.03,7,1,14,0.00
2013-3-5,65.8,49.6,41.6,54.9,40.0,27.4,94,70,51,30.08,29.61,15,3,18,0.20
2013-3-6,49.7,40.3,31.3,29.1,26.3,22.7,79,58,42,30.14,29.76,12,6,25,0.01
2013-3-7,58.5,40.0,24.6,33.3,28.3,22.3,92,67,36,30.26,30.13,5,1,15,0.00
2013-3-8,58.6,41.2,28.8,28.0,25.3,23.1,82,57,28,30.33,30.19,4,0,10,0.00
2013-3-9,65.7,47.7,28.6,35.9,30.7,23.8,84,55,30,30.36,30.21,3,0,6,0.00
2013-3-10,67.1,51.2,35.8,42.0,37.4,32.0,88,62,34,30.29,30.14,7,1,11,0.00
2013-3-11,68.1,56.4,43.1,55.3,46.9,35.9,94,71,54,30.17,29.82,14,3,26,0.10
2013-3-12,67.5,57.5,47.5,57.9,49.0,29.9,98,77,35,29.99,29.73,10,3,15,0.55
2013-3-13,57.7,45.3,33.4,35.4,30.7,26.1,88,60,30,30.10,29.99,14,4,32,0.00
2013-3-14,54.9,39.4,30.1,27.2,20.4,17.7,62,48,24,30.32,30.17,6,1,21,0.00
2013-3-15,68.5,40.6,28.1,42.1,27.7,21.7,84,63,36,30.22,29.99,14,3,27,0.00
2013-3-16,77.4,66.6,56.4,50.4,45.1,41.7,64,48,32,29.93,29.76,18,11,35,0.00
2013-3-17,65.4,60.5,56.2,48.8,44.3,42.8,67,56,44,29.94,29.87,10,6,20,0.00
2013-3-18,45.0,44.0,43.1,43.9,42.5,41.1,96,95,92,30.08,29.95,2,1,27,0.01
2013-3-21,49.9,48.4,45.2,20.0,16.6,12.8,35,28,23,29.86,29.82,11,5,14,0.00
2013-3-22,49.2,47.3,44.5,28.1,25.4,19.2,47,42,36,30.07,30.01,5,2,10,0.00
2013-3-23,47.3,43.4,38.5,45.1,40.7,32.6,96,90,75,30.04,29.89,1,0,5,0.19
2013-3-24,45.6,42.5,40.1,44.0,41.3,38.8,97,95,92,29.90,29.57,6,2,17,1.55
2013-3-25,45.9,40.7,37.7,40.6,31.9,24.1,97,73,45,29.83,29.58,16,8,32,0.01
2013-3-26,41.8,32.1,28.2,27.3,23.7,22.6,80,71,53,30.15,29.94,4,2,25,0.00
2013-3-27,55.4,36.8,26.8,28.0,25.0,23.0,86,64,34,30.29,30.19,6,1,20,0.00
2013-3-28,61.2,52.4,29.7,30.0,25.7,19.6,84,38,26,30.33,30.18,6,1,17,0.00
2013-3-29,61.3,43.0,27.9,33.9,26.5,22.7,85,56,28,30.35,30.21,5,1,20,0.00
2013-3-30,66.0,65.8,65.6,45.6,44.8,44.1,48,47,46,30.12,30.10,2,1,4,0.00
2013-3-31,70.3,58.8,50.2,57.7,53.5,46.6,97,84,55,30.03,29.84,16,6,31,0.18
2013-4-1,74.0,60.5,56.0,57.6,53.8,40.5,97,83,31,29.91,29.83,11,2,15,0.09
2013-4-2,68.6,52.0,42.3,40.9,38.0,35.7,80,61,32,30.14,29.95,9,1,12,0.00
2013-4-3,58.5,53.3,48.4,36.8,29.5,21.0,54,40,31,30.23,30.14,5,1,12,0.00
2013-4-4,50.5,45.1,37.7,39.2,35.9,30.0,95,72,55,30.22,30.00,6,2,18,0.90
2013-4-5,65.3,62.4,57.8,47.0,46.4,45.1,65,56,48,29.97,29.93,2,1,9,0.00
2013-4-6,70.9,56.1,38.4,42.8,39.1,35.3,91,57,31,30.21,30.05,4,1,15,0.00
2013-4-7,72.9,58.8,43.6,52.8,46.9,39.1,86,66,44,30.24,30.08,9,2,22,0.00
2013-4-8,77.2,62.3,53.3,57.0,53.6,51.1,94,75,46,30.16,30.05,12,2,22,0.00
2013-4-9,82.7,67.0,56.0,62.0,57.2,53.4,92,73,44,30.18,30.07,10,2,19,0.00
2013-4-10,81.8,64.8,59.0,61.3,58.8,57.0,93,82,50,30.10,30.04,10,2,19,0.00